This is the latest recevied weather packets stored in our database for station/object KD9NSC. If no packets are shown the sender has not sent any weather packets the latest 10 day(s).
| Time | Temp. | Humidity | Pressure | Rain* | Wind** | Luminosity | Snow |
|---|---|---|---|---|---|---|---|
| 1777692744 | 3.33° C | 77% | 1021.2 hPa | 0 mm | - | 0 W/m² | - |
| 1777692440 | 3.33° C | 76% | 1021.1 hPa | 0 mm | - | 0 W/m² | - |
| 1777692136 | 3.33° C | 74% | 1021.2 hPa | 0 mm | - | 0 W/m² | - |
| 1777691835 | 3.89° C | 76% | 1021.2 hPa | 0 mm | - | 0 W/m² | - |
| 1777691532 | 3.89° C | 75% | 1021.1 hPa | 0 mm | - | 0 W/m² | - |
| 1777691231 | 3.89° C | 74% | 1021.1 hPa | 0 mm | - | 0 W/m² | - |
| 1777690928 | 3.89° C | 72% | 1021.3 hPa | 0 mm | - | 0 W/m² | - |
| 1777690644 | 3.89° C | 73% | 1021.1 hPa | 0 mm | - | 0 W/m² | - |
| 1777690323 | 3.89° C | 74% | 1021.1 hPa | 0 mm | - | 0 W/m² | - |
| 1777690021 | 3.89° C | 74% | 1021 hPa | 0 mm | - | 0 W/m² | - |
| 1777689719 | 4.44° C | 71% | 1021 hPa | 0 mm | - | 0 W/m² | - |
| 1777689416 | 4.44° C | 71% | 1021 hPa | 0 mm | - | 0 W/m² | - |
| 1777689113 | 4.44° C | 72% | 1021 hPa | 0 mm | - | 0 W/m² | - |
| 1777688810 | 4.44° C | 72% | 1020.9 hPa | 0 mm | - | 0 W/m² | - |
| 1777688507 | 5° C | 70% | 1020.8 hPa | 0 mm | - | 0 W/m² | - |
| 1777688205 | 5° C | 71% | 1020.9 hPa | 0 mm | - | 0 W/m² | - |
| 1777687902 | 5° C | 72% | 1020.9 hPa | 0 mm | - | 0 W/m² | - |
| 1777687599 | 5° C | 70% | 1020.8 hPa | 0 mm | - | 0 W/m² | - |
| 1777687295 | 5° C | 68% | 1020.8 hPa | 0 mm | - | 0 W/m² | - |
| 1777686994 | 5° C | 69% | 1020.6 hPa | 0 mm | - | 0 W/m² | - |
| 1777686689 | 5° C | 71% | 1020.5 hPa | 0 mm | - | 0 W/m² | - |
| 1777686387 | 5° C | 72% | 1020.7 hPa | 0 mm | - | 0 W/m² | - |
| 1777686084 | 4.44° C | 69% | 1020.6 hPa | 0 mm | - | 0 W/m² | - |
| 1777685780 | 5° C | 73% | 1020.5 hPa | 0 mm | - | 0 W/m² | - |
| 1777685476 | 4.44° C | 73% | 1020.6 hPa | 0 mm | - | 0 W/m² | - |
* Rain latest hour (hover to see other rain measurements)
** Current wind speed in m/s (hover to see current wind gust speed)